Time,TemperatureF,DewpointF,PressureIn,WindDirection,WindDirectionDegrees,WindSpeedMPH,WindSpeedGustMPH,Humidity,HourlyPrecipIn,Conditions,Clouds,dailyrainin,SoftwareType,DateUTC
2013-01-14 00:03:00,26.8,25.6,30.52,North,9,0.0,0.0,95,0.00,,---,0.00,VWS V14.00,2013-01-14 08:03:00,
2013-01-14 00:09:00,26.9,25.7,30.52,North,9,0.0,1.0,95,0.00,,---,0.00,VWS V14.00,2013-01-14 08:09:00,
2013-01-14 00:14:00,26.9,25.7,30.52,North,350,1.0,1.0,95,0.00,,---,0.00,VWS V14.00,2013-01-14 08:14:00,
2013-01-14 00:19:00,26.9,25.7,30.52,North,355,0.0,2.0,95,0.00,,---,0.00,VWS V14.00,2013-01-14 08:19:00,
2013-01-14 00:24:00,27.0,25.8,30.52,North,355,0.0,2.0,95,0.00,,---,0.00,VWS V14.00,2013-01-14 08:24:00,
2013-01-14 00:29:00,27.0,25.8,30.52,NNW,344,0.0,2.0,95,0.00,,---,0.00,VWS V14.00,2013-01-14 08:29:00,
2013-01-14 00:34:00,27.0,25.8,30.52,NNW,344,0.0,0.0,95,0.00,,---,0.00,VWS V14.00,2013-01-14 08:34:00,
2013-01-14 00:39:00,27.0,25.8,30.52,NNW,344,0.0,0.0,95,0.00,,---,0.00,VWS V14.00,2013-01-14 08:39:00,
2013-01-14 00:44:00,27.0,25.8,30.52,NNW,344,0.0,1.0,95,0.00,,---,0.00,VWS V14.00,2013-01-14 08:44:00,
2013-01-14 00:49:00,27.0,25.8,30.52,NNW,331,0.0,2.0,95,0.00,,---,0.00,VWS V14.00,2013-01-14 08:49:00,
2013-01-14 00:54:00,27.0,25.8,30.52,NNW,331,0.0,2.0,95,0.00,,---,0.00,VWS V14.00,2013-01-14 08:54:00,
2013-01-14 00:59:00,27.0,25.8,30.52,NNW,331,0.0,2.0,95,0.00,,---,0.00,VWS V14.00,2013-01-14 08:59:00,
2013-01-14 01:04:00,27.0,25.8,30.52,NNW,331,0.0,0.0,95,0.00,,---,0.00,VWS V14.00,2013-01-14 09:04:00,
2013-01-14 01:09:00,27.0,25.8,30.52,NNW,331,0.0,0.0,95,0.00,,---,0.00,VWS V14.00,2013-01-14 09:09:00,
2013-01-14 01:14:00,27.1,25.9,30.53,NNW,331,0.0,0.0,95,0.00,,---,0.00,VWS V14.00,2013-01-14 09:14:00,
2013-01-14 01:19:00,27.1,25.9,30.53,NNW,331,0.0,0.0,95,0.00,,---,0.00,VWS V14.00,2013-01-14 09:19:00,
2013-01-14 01:24:00,27.1,25.9,30.53,NNW,336,1.0,2.0,95,0.00,,---,0.00,VWS V14.00,2013-01-14 09:24:00,
2013-01-14 01:29:00,27.1,25.9,30.53,NNW,336,0.0,2.0,95,0.00,,---,0.00,VWS V14.00,2013-01-14 09:29:00,
2013-01-14 01:34:00,27.1,25.9,30.53,NNW,336,1.0,1.0,95,0.00,,---,0.00,VWS V14.00,2013-01-14 09:34:00,
2013-01-14 01:39:00,27.1,25.9,30.52,NNW,338,0.0,1.0,95,0.00,,---,0.00,VWS V14.00,2013-01-14 09:39:00,
2013-01-14 01:44:00,27.2,26.0,30.52,NNW,338,0.0,1.0,95,0.00,,---,0.00,VWS V14.00,2013-01-14 09:44:00,
2013-01-14 01:49:00,27.2,26.0,30.53,NNW,338,0.0,1.0,95,0.00,,---,0.00,VWS V14.00,2013-01-14 09:49:00,
2013-01-14 01:54:00,27.3,26.1,30.52,NNW,338,0.0,1.0,95,0.00,,---,0.00,VWS V14.00,2013-01-14 09:54:00,
2013-01-14 01:59:00,27.3,26.1,30.52,NNW,338,0.0,1.0,95,0.00,,---,0.00,VWS V14.00,2013-01-14 09:59:00,
2013-01-14 02:04:00,27.4,26.2,30.52,ENE,60,1.0,2.0,95,0.00,,---,0.00,VWS V14.00,2013-01-14 10:04:00,
2013-01-14 02:09:00,27.4,26.2,30.53,NNE,24,0.0,2.0,95,0.00,,---,0.00,VWS V14.00,2013-01-14 10:09:00,
2013-01-14 02:14:00,27.6,26.6,30.53,South,191,0.0,2.0,96,0.00,,---,0.00,VWS V14.00,2013-01-14 10:14:00,
2013-01-14 02:19:00,27.7,26.5,30.53,South,191,0.0,2.0,95,0.00,,---,0.00,VWS V14.00,2013-01-14 10:19:00,
2013-01-14 02:24:00,27.8,26.6,30.53,South,191,0.0,2.0,95,0.00,,---,0.00,VWS V14.00,2013-01-14 10:24:00,
2013-01-14 02:29:00,27.9,26.7,30.53,South,191,0.0,2.0,95,0.00,,---,0.00,VWS V14.00,2013-01-14 10:29:00,
2013-01-14 02:34:00,27.8,26.6,30.53,SW,219,1.0,2.0,95,0.00,,---,0.00,VWS V14.00,2013-01-14 10:34:00,
2013-01-14 02:39:00,27.8,26.6,30.53,SW,217,0.0,2.0,95,0.00,,---,0.00,VWS V14.00,2013-01-14 10:39:00,
2013-01-14 02:44:00,27.8,26.6,30.53,South,185,2.0,2.0,95,0.00,,---,0.00,VWS V14.00,2013-01-14 10:44:00,
2013-01-14 02:50:00,27.8,26.6,30.53,South,172,0.0,2.0,95,0.00,,---,0.00,VWS V14.00,2013-01-14 10:50:00,
2013-01-14 02:54:00,27.9,26.7,30.53,South,181,1.0,2.0,95,0.00,,---,0.00,VWS V14.00,2013-01-14 10:54:00,
2013-01-14 03:00:00,27.8,26.6,30.53,SW,219,0.0,2.0,95,0.00,,---,0.00,VWS V14.00,2013-01-14 11:00:00,
2013-01-14 03:05:00,27.8,26.6,30.54,SSW,206,0.0,1.0,95,0.00,,---,0.00,VWS V14.00,2013-01-14 11:05:00,
2013-01-14 03:10:00,27.8,26.6,30.54,SSW,206,0.0,1.0,95,0.00,,---,0.00,VWS V14.00,2013-01-14 11:10:00,
2013-01-14 03:15:00,27.8,26.6,30.54,SSW,206,0.0,1.0,95,0.00,,---,0.00,VWS V14.00,2013-01-14 11:15:00,
2013-01-14 03:20:00,27.8,26.6,30.54,South,188,0.0,1.0,95,0.00,,---,0.00,VWS V14.00,2013-01-14 11:20:00,
2013-01-14 03:25:00,27.9,26.7,30.54,South,186,0.0,1.0,95,0.00,,---,0.00,VWS V14.00,2013-01-14 11:25:00,
2013-01-14 03:30:00,27.9,26.4,30.54,South,186,0.0,1.0,94,0.00,,---,0.00,VWS V14.00,2013-01-14 11:30:00,
2013-01-14 03:35:00,27.9,26.4,30.53,South,186,0.0,1.0,94,0.00,,---,0.00,VWS V14.00,2013-01-14 11:35:00,
2013-01-14 03:40:00,27.9,26.4,30.53,SSW,192,0.0,3.0,94,0.00,,---,0.00,VWS V14.00,2013-01-14 11:40:00,
2013-01-14 03:45:00,28.0,26.5,30.53,SSW,192,0.0,3.0,94,0.00,,---,0.00,VWS V14.00,2013-01-14 11:45:00,
2013-01-14 03:50:00,28.0,26.5,30.53,SW,231,1.0,3.0,94,0.00,,---,0.00,VWS V14.00,2013-01-14 11:50:00,
2013-01-14 03:55:00,28.0,26.8,30.53,South,188,1.0,3.0,95,0.00,,---,0.00,VWS V14.00,2013-01-14 11:55:00,
2013-01-14 04:00:00,28.0,26.8,30.53,SSW,192,0.0,3.0,95,0.00,,---,0.00,VWS V14.00,2013-01-14 12:00:00,
2013-01-14 04:05:00,27.9,26.4,30.53,SSE,166,0.0,2.0,94,0.00,,---,0.00,VWS V14.00,2013-01-14 12:05:00,
2013-01-14 04:10:00,27.9,26.4,30.53,SSE,158,0.0,2.0,94,0.00,,---,0.00,VWS V14.00,2013-01-14 12:10:00,
2013-01-14 04:15:00,27.9,26.7,30.53,SSE,168,0.0,4.0,95,0.00,,---,0.00,VWS V14.00,2013-01-14 12:15:00,
2013-01-14 04:20:00,27.9,26.7,30.53,SSW,195,1.0,4.0,95,0.00,,---,0.00,VWS V14.00,2013-01-14 12:20:00,
2013-01-14 04:25:00,28.0,26.8,30.52,WSW,240,3.0,5.0,95,0.00,,---,0.00,VWS V14.00,2013-01-14 12:25:00,
2013-01-14 04:30:00,27.9,26.7,30.52,SSE,161,2.0,5.0,95,0.00,,---,0.00,VWS V14.00,2013-01-14 12:30:00,
2013-01-14 04:35:00,27.9,26.4,30.52,South,177,1.0,2.0,94,0.00,,---,0.00,VWS V14.00,2013-01-14 12:35:00,
2013-01-14 04:40:00,27.9,26.7,30.53,SW,227,1.0,3.0,95,0.00,,---,0.00,VWS V14.00,2013-01-14 12:40:00,
2013-01-14 04:45:00,27.8,26.6,30.53,South,191,0.0,4.0,95,0.00,,---,0.00,VWS V14.00,2013-01-14 12:45:00,
2013-01-14 04:50:00,27.8,26.6,30.53,SW,227,2.0,4.0,95,0.00,,---,0.00,VWS V14.00,2013-01-14 12:50:00,
2013-01-14 04:55:00,27.8,26.6,30.53,SW,222,1.0,4.0,95,0.00,,---,0.00,VWS V14.00,2013-01-14 12:55:00,
2013-01-14 05:00:00,27.8,26.6,30.53,SSW,195,2.0,4.0,95,0.00,,---,0.00,VWS V14.00,2013-01-14 13:00:00,
2013-01-14 05:05:00,27.7,26.5,30.53,SSW,195,0.0,0.0,95,0.00,,---,0.00,VWS V14.00,2013-01-14 13:05:00,
2013-01-14 05:10:00,27.6,26.4,30.53,SSW,212,0.0,3.0,95,0.00,,---,0.00,VWS V14.00,2013-01-14 13:10:00,
2013-01-14 05:15:00,27.7,26.5,30.54,SSW,199,1.0,3.0,95,0.00,,---,0.00,VWS V14.00,2013-01-14 13:15:00,
2013-01-14 05:20:00,27.7,26.5,30.54,SSW,192,1.0,3.0,95,0.00,,---,0.00,VWS V14.00,2013-01-14 13:20:00,
2013-01-14 05:25:00,27.7,26.5,30.53,South,175,0.0,4.0,95,0.00,,---,0.00,VWS V14.00,2013-01-14 13:25:00,
2013-01-14 05:30:00,27.7,26.5,30.54,SSW,208,0.0,4.0,95,0.00,,---,0.00,VWS V14.00,2013-01-14 13:30:00,
2013-01-14 05:35:00,27.7,26.5,30.54,SSW,204,0.0,2.0,95,0.00,,---,0.00,VWS V14.00,2013-01-14 13:35:00,
2013-01-14 05:40:00,27.8,26.6,30.54,SSW,213,0.0,2.0,95,0.00,,---,0.00,VWS V14.00,2013-01-14 13:40:00,
2013-01-14 05:45:00,27.8,26.6,30.54,SSW,200,0.0,2.0,95,0.00,,---,0.00,VWS V14.00,2013-01-14 13:45:00,
2013-01-14 05:50:00,27.9,26.7,30.54,SSW,208,0.0,2.0,95,0.00,,---,0.00,VWS V14.00,2013-01-14 13:50:00,
2013-01-14 05:55:00,27.9,26.7,30.55,SE,145,0.0,2.0,95,0.00,,---,0.00,VWS V14.00,2013-01-14 13:55:00,
2013-01-14 06:00:00,27.9,26.7,30.55,SW,215,1.0,2.0,95,0.00,,---,0.00,VWS V14.00,2013-01-14 14:00:00,
2013-01-14 06:05:00,27.8,26.6,30.54,SSW,200,1.0,2.0,95,0.00,,---,0.00,VWS V14.00,2013-01-14 14:05:00,
2013-01-14 06:10:00,27.8,26.6,30.54,SSW,202,1.0,2.0,95,0.00,,---,0.00,VWS V14.00,2013-01-14 14:10:00,
2013-01-14 06:15:00,27.9,26.9,30.54,SSE,167,2.0,4.0,96,0.00,,---,0.00,VWS V14.00,2013-01-14 14:15:00,
2013-01-14 06:20:00,27.9,26.7,30.54,SSE,159,0.0,4.0,95,0.00,,---,0.00,VWS V14.00,2013-01-14 14:20:00,
2013-01-14 06:25:00,27.9,26.7,30.54,SSW,203,0.0,4.0,95,0.00,,---,0.00,VWS V14.00,2013-01-14 14:25:00,
2013-01-14 06:30:00,27.9,26.7,30.54,South,182,0.0,4.0,95,0.00,,---,0.00,VWS V14.00,2013-01-14 14:30:00,
2013-01-14 06:35:00,27.9,26.7,30.55,South,173,0.0,1.0,95,0.00,,---,0.00,VWS V14.00,2013-01-14 14:35:00,
2013-01-14 06:40:00,27.9,26.7,30.55,SSW,205,0.0,3.0,95,0.00,,---,0.00,VWS V14.00,2013-01-14 14:40:00,
2013-01-14 06:45:00,27.9,26.7,30.56,SSW,197,0.0,3.0,95,0.00,,---,0.00,VWS V14.00,2013-01-14 14:45:00,
2013-01-14 06:51:00,27.9,26.7,30.56,SSW,197,0.0,3.0,95,0.00,,---,0.00,VWS V14.00,2013-01-14 14:51:00,
2013-01-14 06:56:00,27.9,26.7,30.55,SSW,199,0.0,3.0,95,0.00,,---,0.00,VWS V14.00,2013-01-14 14:56:00,
2013-01-14 07:01:00,27.9,26.7,30.55,South,172,4.0,4.0,95,0.00,,---,0.00,VWS V14.00,2013-01-14 15:01:00,
2013-01-14 07:06:00,27.8,26.6,30.55,South,181,2.0,3.0,95,0.00,,---,0.00,VWS V14.00,2013-01-14 15:06:00,
2013-01-14 07:11:00,27.9,26.7,30.55,South,184,1.0,4.0,95,0.00,,---,0.00,VWS V14.00,2013-01-14 15:11:00,
2013-01-14 07:16:00,27.9,26.7,30.56,SSW,200,0.0,4.0,95,0.00,,---,0.00,VWS V14.00,2013-01-14 15:16:00,
2013-01-14 07:21:00,27.9,26.7,30.56,SSW,211,1.0,4.0,95,0.00,,---,0.00,VWS V14.00,2013-01-14 15:21:00,
2013-01-14 07:26:00,27.8,26.6,30.56,SE,145,0.0,4.0,95,0.00,,---,0.00,VWS V14.00,2013-01-14 15:26:00,
2013-01-14 07:31:00,27.7,26.5,30.56,SSE,160,0.0,4.0,95,0.00,,---,0.00,VWS V14.00,2013-01-14 15:31:00,
2013-01-14 07:36:00,27.8,26.6,30.56,SSW,209,1.0,4.0,95,0.00,,---,0.00,VWS V14.00,2013-01-14 15:36:00,
2013-01-14 07:41:00,27.6,26.4,30.57,SW,221,0.0,4.0,95,0.00,,---,0.00,VWS V14.00,2013-01-14 15:41:00,
2013-01-14 07:46:00,27.6,26.4,30.57,WSW,256,1.0,4.0,95,0.00,,---,0.00,VWS V14.00,2013-01-14 15:46:00,
2013-01-14 07:51:00,27.6,26.4,30.57,SW,217,3.0,4.0,95,0.00,,---,0.00,VWS V14.00,2013-01-14 15:51:00,
2013-01-14 07:56:00,27.5,26.3,30.57,SW,225,1.0,4.0,95,0.00,,---,0.00,VWS V14.00,2013-01-14 15:56:00,
2013-01-14 08:01:00,27.5,26.5,30.57,SSW,209,0.0,4.0,96,0.00,,---,0.00,VWS V14.00,2013-01-14 16:01:00,
2013-01-14 08:06:00,27.5,26.5,30.57,SSW,196,1.0,2.0,96,0.00,,---,0.00,VWS V14.00,2013-01-14 16:06:00,
2013-01-14 08:11:00,27.6,26.6,30.56,SSW,199,2.0,4.0,96,0.00,,---,0.00,VWS V14.00,2013-01-14 16:11:00,
2013-01-14 08:16:00,27.7,26.7,30.56,SSE,153,0.0,4.0,96,0.00,,---,0.00,VWS V14.00,2013-01-14 16:16:00,
2013-01-14 08:21:00,27.7,26.7,30.56,SSE,159,1.0,4.0,96,0.00,,---,0.00,VWS V14.00,2013-01-14 16:21:00,
2013-01-14 08:26:00,27.7,26.7,30.56,SSE,164,2.0,4.0,96,0.00,,---,0.00,VWS V14.00,2013-01-14 16:26:00,
2013-01-14 08:31:00,27.9,26.9,30.56,ESE,123,1.0,4.0,96,0.00,,---,0.00,VWS V14.00,2013-01-14 16:31:00,
2013-01-14 08:36:00,27.9,26.9,30.56,SSE,163,0.0,4.0,96,0.00,,---,0.00,VWS V14.00,2013-01-14 16:36:00,
2013-01-14 08:41:00,28.1,27.1,30.56,South,175,0.0,4.0,96,0.00,,---,0.00,VWS V14.00,2013-01-14 16:41:00,
2013-01-14 08:46:00,28.2,27.2,30.57,SSW,206,1.0,4.0,96,0.00,,---,0.00,VWS V14.00,2013-01-14 16:46:00,
2013-01-14 08:51:00,28.3,27.3,30.57,SSE,157,1.0,4.0,96,0.00,,---,0.00,VWS V14.00,2013-01-14 16:51:00,
2013-01-14 08:56:00,28.2,27.0,30.57,SSE,148,2.0,4.0,95,0.00,,---,0.00,VWS V14.00,2013-01-14 16:56:00,
2013-01-14 09:01:00,28.1,26.9,30.57,South,182,3.0,5.0,95,0.00,,---,0.00,VWS V14.00,2013-01-14 17:01:00,
2013-01-14 09:06:00,28.2,27.0,30.57,SW,221,2.0,2.0,95,0.00,,---,0.00,VWS V14.00,2013-01-14 17:06:00,
2013-01-14 09:11:00,28.3,27.0,30.57,SSE,148,0.0,4.0,95,0.00,,---,0.00,VWS V14.00,2013-01-14 17:11:00,
2013-01-14 09:16:00,28.3,27.0,30.57,South,179,1.0,4.0,95,0.00,,---,0.00,VWS V14.00,2013-01-14 17:16:00,
2013-01-14 09:21:00,28.3,27.0,30.57,South,186,0.0,4.0,95,0.00,,---,0.00,VWS V14.00,2013-01-14 17:21:00,
2013-01-14 09:26:00,28.3,27.0,30.57,South,174,2.0,5.0,95,0.00,,---,0.00,VWS V14.00,2013-01-14 17:26:00,
2013-01-14 09:31:00,28.4,27.1,30.57,South,184,2.0,5.0,95,0.00,,---,0.00,VWS V14.00,2013-01-14 17:31:00,
2013-01-14 09:36:00,28.5,27.2,30.58,SW,228,2.0,4.0,95,0.00,,---,0.00,VWS V14.00,2013-01-14 17:36:00,
2013-01-14 09:41:00,28.5,27.2,30.58,SSE,167,0.0,4.0,95,0.00,,---,0.00,VWS V14.00,2013-01-14 17:41:00,
2013-01-14 09:47:00,28.6,27.4,30.58,SSW,198,0.0,4.0,95,0.00,,---,0.00,VWS V14.00,2013-01-14 17:47:00,
2013-01-14 09:52:00,28.8,27.5,30.58,South,179,5.0,5.0,95,0.00,,---,0.00,VWS V14.00,2013-01-14 17:52:00,
2013-01-14 09:57:00,28.8,27.3,30.57,SW,221,1.0,5.0,94,0.00,,---,0.00,VWS V14.00,2013-01-14 17:57:00,
2013-01-14 10:02:00,28.8,27.3,30.58,SW,215,4.0,5.0,94,0.00,,---,0.00,VWS V14.00,2013-01-14 18:02:00,
2013-01-14 10:07:00,29.0,27.5,30.58,SW,231,3.0,4.0,94,0.00,,---,0.00,VWS V14.00,2013-01-14 18:07:00,
2013-01-14 10:12:00,29.1,27.6,30.58,SSW,205,3.0,4.0,94,0.00,,---,0.00,VWS V14.00,2013-01-14 18:12:00,
2013-01-14 10:17:00,29.0,27.5,30.59,SSW,208,1.0,4.0,94,0.00,,---,0.00,VWS V14.00,2013-01-14 18:17:00,
2013-01-14 10:22:00,29.1,27.6,30.59,SSW,198,2.0,4.0,94,0.00,,---,0.00,VWS V14.00,2013-01-14 18:22:00,
2013-01-14 10:27:00,29.2,28.0,30.59,South,181,3.0,6.0,95,0.00,,---,0.00,VWS V14.00,2013-01-14 18:27:00,
2013-01-14 10:32:00,29.3,27.8,30.59,SSW,205,1.0,6.0,94,0.00,,---,0.00,VWS V14.00,2013-01-14 18:32:00,
2013-01-14 10:37:00,29.4,27.9,30.59,South,188,1.0,4.0,94,0.00,,---,0.00,VWS V14.00,2013-01-14 18:37:00,
2013-01-14 10:42:00,29.5,28.0,30.59,WSW,238,2.0,5.0,94,0.00,,---,0.00,VWS V14.00,2013-01-14 18:42:00,
2013-01-14 10:47:00,29.5,28.0,30.59,South,173,4.0,5.0,94,0.00,,---,0.00,VWS V14.00,2013-01-14 18:47:00,
2013-01-14 10:52:00,29.6,28.1,30.59,South,190,1.0,5.0,94,0.00,,---,0.00,VWS V14.00,2013-01-14 18:52:00,
2013-01-14 10:57:00,29.8,28.3,30.59,SSE,160,4.0,5.0,94,0.00,,---,0.00,VWS V14.00,2013-01-14 18:57:00,
2013-01-14 11:02:00,29.7,27.9,30.58,SSW,203,3.0,6.0,93,0.00,,---,0.00,VWS V14.00,2013-01-14 19:02:00,
2013-01-14 11:07:00,29.7,27.9,30.58,South,169,2.0,6.0,93,0.00,,---,0.00,VWS V14.00,2013-01-14 19:07:00,
2013-01-14 11:12:00,29.8,28.0,30.58,SSE,153,5.0,6.0,93,0.00,,---,0.00,VWS V14.00,2013-01-14 19:12:00,
2013-01-14 11:17:00,30.0,28.2,30.58,South,173,1.0,6.0,93,0.00,,---,0.00,VWS V14.00,2013-01-14 19:17:00,
2013-01-14 11:22:00,30.0,28.2,30.58,SSW,195,1.0,6.0,93,0.00,,---,0.00,VWS V14.00,2013-01-14 19:22:00,
2013-01-14 11:27:00,30.1,28.3,30.58,SSE,163,4.0,6.0,93,0.00,,---,0.00,VWS V14.00,2013-01-14 19:27:00,
2013-01-14 11:32:00,30.1,28.3,30.57,SSE,159,5.0,5.0,93,0.00,,---,0.00,VWS V14.00,2013-01-14 19:32:00,
2013-01-14 11:37:00,30.2,28.4,30.57,SSE,168,2.0,6.0,93,0.00,,---,0.00,VWS V14.00,2013-01-14 19:37:00,
2013-01-14 11:42:00,30.4,28.6,30.57,South,175,5.0,6.0,93,0.00,,---,0.00,VWS V14.00,2013-01-14 19:42:00,
2013-01-14 11:47:00,30.6,28.8,30.57,SSE,161,5.0,6.0,93,0.00,,---,0.00,VWS V14.00,2013-01-14 19:47:00,
2013-01-14 11:52:00,30.6,28.8,30.57,SW,228,2.0,6.0,93,0.00,,---,0.00,VWS V14.00,2013-01-14 19:52:00,
2013-01-14 11:57:00,30.8,29.0,30.57,South,189,3.0,6.0,93,0.00,,---,0.00,VWS V14.00,2013-01-14 19:57:00,
2013-01-14 12:02:00,30.8,28.8,30.57,South,178,2.0,2.0,92,0.00,,---,0.00,VWS V14.00,2013-01-14 20:02:00,
2013-01-14 12:07:00,30.8,28.8,30.56,South,188,2.0,5.0,92,0.00,,---,0.00,VWS V14.00,2013-01-14 20:07:00,
2013-01-14 12:12:00,30.7,28.7,30.56,SSW,195,1.0,5.0,92,0.00,,---,0.00,VWS V14.00,2013-01-14 20:12:00,
2013-01-14 12:17:00,30.8,28.8,30.56,South,191,3.0,6.0,92,0.00,,---,0.00,VWS V14.00,2013-01-14 20:17:00,
2013-01-14 12:22:00,30.8,28.8,30.56,South,182,2.0,6.0,92,0.00,,---,0.00,VWS V14.00,2013-01-14 20:22:00,
2013-01-14 12:27:00,31.0,29.0,30.56,South,179,2.0,6.0,92,0.00,,---,0.00,VWS V14.00,2013-01-14 20:27:00,
2013-01-14 12:32:00,31.1,29.0,30.56,SSW,192,4.0,5.0,92,0.00,,---,0.00,VWS V14.00,2013-01-14 20:32:00,
2013-01-14 12:37:00,31.0,28.7,30.56,SE,139,4.0,6.0,91,0.00,,---,0.00,VWS V14.00,2013-01-14 20:37:00,
2013-01-14 12:42:00,31.2,29.1,30.56,SSW,203,3.0,6.0,92,0.00,,---,0.00,VWS V14.00,2013-01-14 20:42:00,
2013-01-14 12:47:00,31.2,28.9,30.55,SW,232,5.0,7.0,91,0.00,,---,0.00,VWS V14.00,2013-01-14 20:47:00,
2013-01-14 12:52:00,31.3,29.0,30.55,SE,142,1.0,7.0,91,0.00,,---,0.00,VWS V14.00,2013-01-14 20:52:00,
2013-01-14 12:57:00,31.4,29.1,30.55,South,171,2.0,7.0,91,0.00,,---,0.00,VWS V14.00,2013-01-14 20:57:00,
2013-01-14 13:02:00,31.4,29.1,30.55,SW,223,2.0,2.0,91,0.00,,---,0.00,VWS V14.00,2013-01-14 21:02:00,
2013-01-14 13:07:00,31.6,29.3,30.55,South,175,1.0,6.0,91,0.00,,---,0.00,VWS V14.00,2013-01-14 21:07:00,
2013-01-14 13:12:00,31.6,29.3,30.54,South,184,5.0,7.0,91,0.00,,---,0.00,VWS V14.00,2013-01-14 21:12:00,
2013-01-14 13:17:00,31.7,29.1,30.55,SSE,167,2.0,7.0,90,0.00,,---,0.00,VWS V14.00,2013-01-14 21:17:00,
2013-01-14 13:23:00,31.7,29.1,30.55,SW,218,1.0,7.0,90,0.00,,---,0.00,VWS V14.00,2013-01-14 21:23:00,
2013-01-14 13:28:00,31.8,29.5,30.55,SW,226,4.0,7.0,91,0.00,,---,0.00,VWS V14.00,2013-01-14 21:28:00,
2013-01-14 13:33:00,32.1,29.8,30.55,South,183,4.0,4.0,91,0.00,,---,0.00,VWS V14.00,2013-01-14 21:33:00,
2013-01-14 13:38:00,32.1,29.5,30.55,SW,236,1.0,5.0,90,0.00,,---,0.00,VWS V14.00,2013-01-14 21:38:00,
2013-01-14 13:43:00,32.5,29.9,30.55,South,170,1.0,6.0,90,0.00,,---,0.00,VWS V14.00,2013-01-14 21:43:00,
2013-01-14 13:48:00,32.9,30.0,30.55,SSW,197,2.0,6.0,89,0.00,,---,0.00,VWS V14.00,2013-01-14 21:48:00,
2013-01-14 13:53:00,33.0,30.1,30.55,SSW,210,3.0,6.0,89,0.00,,---,0.00,VWS V14.00,2013-01-14 21:53:00,
2013-01-14 13:58:00,32.9,30.0,30.56,SSE,157,5.0,7.0,89,0.00,,---,0.00,VWS V14.00,2013-01-14 21:58:00,
2013-01-14 14:03:00,33.0,30.4,30.56,SSE,158,4.0,6.0,90,0.00,,---,0.00,VWS V14.00,2013-01-14 22:03:00,
2013-01-14 14:08:00,32.8,29.9,30.56,SSE,157,1.0,6.0,89,0.00,,---,0.00,VWS V14.00,2013-01-14 22:08:00,
2013-01-14 14:13:00,33.0,30.4,30.56,SSE,163,1.0,6.0,90,0.00,,---,0.00,VWS V14.00,2013-01-14 22:13:00,
2013-01-14 14:18:00,33.1,30.5,30.56,SSE,166,2.0,6.0,90,0.00,,---,0.00,VWS V14.00,2013-01-14 22:18:00,
2013-01-14 14:23:00,33.2,30.3,30.57,SSW,209,0.0,6.0,89,0.00,,---,0.00,VWS V14.00,2013-01-14 22:23:00,
2013-01-14 14:28:00,33.3,30.4,30.57,SE,141,4.0,6.0,89,0.00,,---,0.00,VWS V14.00,2013-01-14 22:28:00,
2013-01-14 14:33:00,33.3,30.4,30.57,WSW,237,2.0,2.0,89,0.00,,---,0.00,VWS V14.00,2013-01-14 22:33:00,
2013-01-14 14:38:00,33.5,30.6,30.57,WSW,252,0.0,3.0,89,0.00,,---,0.00,VWS V14.00,2013-01-14 22:38:00,
2013-01-14 14:43:00,33.8,30.9,30.57,SSE,157,1.0,4.0,89,0.00,,---,0.00,VWS V14.00,2013-01-14 22:43:00,
2013-01-14 14:48:00,33.7,30.5,30.57,SSE,165,0.0,4.0,88,0.00,,---,0.00,VWS V14.00,2013-01-14 22:48:00,
2013-01-14 14:53:00,33.9,31.0,30.57,SSE,159,2.0,4.0,89,0.00,,---,0.00,VWS V14.00,2013-01-14 22:53:00,
2013-01-14 14:58:00,33.8,30.6,30.56,SE,132,2.0,4.0,88,0.00,,---,0.00,VWS V14.00,2013-01-14 22:58:00,
2013-01-14 15:03:00,33.8,30.9,30.56,SW,222,2.0,4.0,89,0.00,,---,0.00,VWS V14.00,2013-01-14 23:03:00,
2013-01-14 15:08:00,33.8,30.6,30.56,South,171,0.0,4.0,88,0.00,,---,0.00,VWS V14.00,2013-01-14 23:08:00,
2013-01-14 15:13:00,33.9,31.0,30.56,SSE,166,1.0,4.0,89,0.00,,---,0.00,VWS V14.00,2013-01-14 23:13:00,
2013-01-14 15:18:00,34.0,30.8,30.56,SSE,159,1.0,4.0,88,0.00,,---,0.00,VWS V14.00,2013-01-14 23:18:00,
2013-01-14 15:23:00,34.1,30.9,30.57,SSW,209,1.0,4.0,88,0.00,,---,0.00,VWS V14.00,2013-01-14 23:23:00,
2013-01-14 15:28:00,34.1,30.9,30.56,South,174,0.0,4.0,88,0.00,,---,0.00,VWS V14.00,2013-01-14 23:28:00,
2013-01-14 15:33:00,34.1,31.2,30.56,South,175,0.0,0.0,89,0.00,,---,0.00,VWS V14.00,2013-01-14 23:33:00,
2013-01-14 15:38:00,34.1,31.2,30.56,SSW,207,1.0,1.0,89,0.00,,---,0.00,VWS V14.00,2013-01-14 23:38:00,
2013-01-14 15:43:00,34.2,31.3,30.56,SSW,208,0.0,1.0,89,0.00,,---,0.00,VWS V14.00,2013-01-14 23:43:00,
2013-01-14 15:48:00,34.3,31.1,30.56,South,182,1.0,2.0,88,0.00,,---,0.00,VWS V14.00,2013-01-14 23:48:00,
2013-01-14 15:53:00,34.4,31.2,30.56,SSE,155,2.0,4.0,88,0.00,,---,0.00,VWS V14.00,2013-01-14 23:53:00,
2013-01-14 15:58:00,34.4,31.2,30.56,South,182,2.0,4.0,88,0.00,,---,0.00,VWS V14.00,2013-01-14 23:58:00,
2013-01-14 16:03:00,34.4,31.2,30.56,SE,146,0.0,2.0,88,0.00,,---,0.00,VWS V14.00,2013-01-15 00:03:00,
2013-01-14 16:08:00,34.5,31.3,30.55,South,181,3.0,4.0,88,0.00,,---,0.00,VWS V14.00,2013-01-15 00:08:00,
2013-01-14 16:14:00,34.5,31.3,30.55,SSW,194,1.0,4.0,88,0.00,,---,0.00,VWS V14.00,2013-01-15 00:14:00,
2013-01-14 16:19:00,34.5,31.6,30.55,SW,227,0.0,4.0,89,0.00,,---,0.00,VWS V14.00,2013-01-15 00:19:00,
2013-01-14 16:24:00,34.5,31.6,30.56,SW,233,0.0,4.0,89,0.00,,---,0.00,VWS V14.00,2013-01-15 00:24:00,
2013-01-14 16:29:00,34.6,31.7,30.56,South,171,1.0,4.0,89,0.00,,---,0.00,VWS V14.00,2013-01-15 00:29:00,
2013-01-14 16:34:00,34.6,31.4,30.56,South,175,0.0,1.0,88,0.00,,---,0.00,VWS V14.00,2013-01-15 00:34:00,
2013-01-14 16:39:00,34.6,31.4,30.56,SSW,207,2.0,2.0,88,0.00,,---,0.00,VWS V14.00,2013-01-15 00:39:00,
2013-01-14 16:44:00,34.6,31.7,30.56,SSW,207,0.0,2.0,89,0.00,,---,0.00,VWS V14.00,2013-01-15 00:44:00,
2013-01-14 16:49:00,34.6,31.7,30.56,SSW,207,0.0,2.0,89,0.00,,---,0.00,VWS V14.00,2013-01-15 00:49:00,
2013-01-14 16:54:00,34.6,31.7,30.56,SSW,207,0.0,2.0,89,0.00,,---,0.00,VWS V14.00,2013-01-15 00:54:00,
2013-01-14 16:59:00,34.6,31.7,30.56,SSW,207,0.0,2.0,89,0.00,,---,0.00,VWS V14.00,2013-01-15 00:59:00,
2013-01-14 17:04:00,34.5,31.6,30.56,SSW,207,0.0,0.0,89,0.00,,---,0.00,VWS V14.00,2013-01-15 01:04:00,
2013-01-14 17:09:00,34.5,31.6,30.56,SSW,207,0.0,0.0,89,0.00,,---,0.00,VWS V14.00,2013-01-15 01:09:00,
2013-01-14 17:14:00,34.5,31.6,30.56,SSW,194,0.0,0.0,89,0.00,,---,0.00,VWS V14.00,2013-01-15 01:14:00,
2013-01-14 17:19:00,34.5,31.9,30.56,SSW,195,0.0,0.0,90,0.00,,---,0.00,VWS V14.00,2013-01-15 01:19:00,
2013-01-14 17:24:00,34.5,31.9,30.56,South,182,0.0,1.0,90,0.00,,---,0.00,VWS V14.00,2013-01-15 01:24:00,
2013-01-14 17:29:00,34.4,31.8,30.56,South,173,0.0,1.0,90,0.00,,---,0.00,VWS V14.00,2013-01-15 01:29:00,
2013-01-14 17:34:00,34.4,31.8,30.56,South,173,0.0,0.0,90,0.00,,---,0.00,VWS V14.00,2013-01-15 01:34:00,
2013-01-14 17:39:00,34.4,31.8,30.56,South,173,0.0,0.0,90,0.00,,---,0.00,VWS V14.00,2013-01-15 01:39:00,
2013-01-14 17:44:00,34.3,31.7,30.56,South,173,0.0,0.0,90,0.00,,---,0.00,VWS V14.00,2013-01-15 01:44:00,
2013-01-14 17:49:00,34.3,31.7,30.56,South,173,0.0,0.0,90,0.00,,---,0.00,VWS V14.00,2013-01-15 01:49:00,
2013-01-14 17:54:00,34.3,31.7,30.56,South,173,0.0,0.0,90,0.00,,---,0.00,VWS V14.00,2013-01-15 01:54:00,
2013-01-14 17:59:00,34.3,31.7,30.56,South,173,0.0,0.0,90,0.00,,---,0.00,VWS V14.00,2013-01-15 01:59:00,
2013-01-14 18:04:00,34.2,31.9,30.56,South,173,0.0,0.0,91,0.00,,---,0.00,VWS V14.00,2013-01-15 02:04:00,
2013-01-14 18:09:00,34.2,31.9,30.56,South,173,0.0,0.0,91,0.00,,---,0.00,VWS V14.00,2013-01-15 02:09:00,
2013-01-14 18:14:00,34.2,31.9,30.56,South,173,0.0,0.0,91,0.00,,---,0.00,VWS V14.00,2013-01-15 02:14:00,
2013-01-14 18:19:00,34.1,31.8,30.56,South,173,0.0,0.0,91,0.00,,---,0.00,VWS V14.00,2013-01-15 02:19:00,
2013-01-14 18:24:00,34.1,31.8,30.56,South,173,0.0,0.0,91,0.00,,---,0.00,VWS V14.00,2013-01-15 02:24:00,
2013-01-14 18:29:00,34.1,31.8,30.56,South,173,0.0,0.0,91,0.00,,---,0.00,VWS V14.00,2013-01-15 02:29:00,
2013-01-14 18:34:00,34.0,31.6,30.56,South,173,0.0,0.0,91,0.00,,---,0.00,VWS V14.00,2013-01-15 02:34:00,
2013-01-14 18:39:00,34.0,31.6,30.56,South,173,0.0,0.0,91,0.00,,---,0.00,VWS V14.00,2013-01-15 02:39:00,
2013-01-14 18:44:00,34.1,31.8,30.56,South,173,0.0,0.0,91,0.00,,---,0.00,VWS V14.00,2013-01-15 02:44:00,
2013-01-14 18:49:00,34.0,31.6,30.56,South,173,0.0,0.0,91,0.00,,---,0.00,VWS V14.00,2013-01-15 02:49:00,
2013-01-14 18:54:00,34.0,31.6,30.56,South,173,0.0,0.0,91,0.00,,---,0.00,VWS V14.00,2013-01-15 02:54:00,
2013-01-14 19:00:00,34.0,31.6,30.56,South,173,0.0,0.0,91,0.00,,---,0.00,VWS V14.00,2013-01-15 03:00:00,
2013-01-14 19:05:00,34.0,31.6,30.56,South,173,0.0,0.0,91,0.00,,---,0.00,VWS V14.00,2013-01-15 03:05:00,
2013-01-14 19:10:00,34.0,31.6,30.56,South,173,0.0,0.0,91,0.00,,---,0.00,VWS V14.00,2013-01-15 03:10:00,
2013-01-14 19:15:00,34.1,31.8,30.56,South,173,0.0,0.0,91,0.00,,---,0.00,VWS V14.00,2013-01-15 03:15:00,
2013-01-14 19:20:00,34.0,31.6,30.56,South,173,0.0,0.0,91,0.00,,---,0.00,VWS V14.00,2013-01-15 03:20:00,
2013-01-14 19:25:00,34.0,31.9,30.56,South,173,0.0,0.0,92,0.00,,---,0.00,VWS V14.00,2013-01-15 03:25:00,
2013-01-14 19:30:00,34.0,31.9,30.56,South,173,0.0,0.0,92,0.00,,---,0.00,VWS V14.00,2013-01-15 03:30:00,
2013-01-14 19:35:00,33.9,31.8,30.57,South,173,0.0,0.0,92,0.00,,---,0.00,VWS V14.00,2013-01-15 03:35:00,
2013-01-14 19:40:00,33.9,31.8,30.57,South,173,0.0,0.0,92,0.00,,---,0.00,VWS V14.00,2013-01-15 03:40:00,
2013-01-14 19:45:00,33.8,31.7,30.57,South,173,0.0,0.0,92,0.00,,---,0.00,VWS V14.00,2013-01-15 03:45:00,
2013-01-14 19:50:00,33.8,32.0,30.57,South,173,0.0,0.0,93,0.00,,---,0.00,VWS V14.00,2013-01-15 03:50:00,
2013-01-14 19:55:00,33.8,32.0,30.57,South,173,0.0,0.0,93,0.00,,---,0.00,VWS V14.00,2013-01-15 03:55:00,
2013-01-14 20:00:00,33.8,32.0,30.57,SSE,151,0.0,0.0,93,0.00,,---,0.00,VWS V14.00,2013-01-15 04:00:00,
2013-01-14 20:05:00,33.7,31.9,30.57,SSE,151,0.0,0.0,93,0.00,,---,0.00,VWS V14.00,2013-01-15 04:05:00,
2013-01-14 20:10:00,33.8,32.0,30.57,SSE,151,0.0,0.0,93,0.00,,---,0.00,VWS V14.00,2013-01-15 04:10:00,
2013-01-14 20:15:00,33.8,32.0,30.57,SSE,151,0.0,0.0,93,0.00,,---,0.00,VWS V14.00,2013-01-15 04:15:00,
2013-01-14 20:20:00,33.8,32.0,30.57,SSE,151,0.0,0.0,93,0.00,,---,0.00,VWS V14.00,2013-01-15 04:20:00,
2013-01-14 20:25:00,33.8,32.0,30.57,SSE,151,0.0,0.0,93,0.00,,---,0.00,VWS V14.00,2013-01-15 04:25:00,
2013-01-14 20:30:00,33.8,32.0,30.57,SSE,151,0.0,0.0,93,0.00,,---,0.00,VWS V14.00,2013-01-15 04:30:00,
2013-01-14 20:35:00,33.8,32.0,30.57,SSE,151,0.0,0.0,93,0.00,,---,0.00,VWS V14.00,2013-01-15 04:35:00,
2013-01-14 20:40:00,33.8,32.0,30.57,SSE,151,0.0,0.0,93,0.00,,---,0.00,VWS V14.00,2013-01-15 04:40:00,
2013-01-14 20:45:00,33.8,32.3,30.57,SSE,151,0.0,0.0,94,0.00,,---,0.00,VWS V14.00,2013-01-15 04:45:00,
2013-01-14 20:50:00,33.8,32.0,30.57,SSE,151,0.0,0.0,93,0.00,,---,0.00,VWS V14.00,2013-01-15 04:50:00,
2013-01-14 20:55:00,33.8,32.0,30.57,SSE,151,0.0,0.0,93,0.00,,---,0.00,VWS V14.00,2013-01-15 04:55:00,
2013-01-14 21:00:00,33.8,32.0,30.57,SSE,151,0.0,0.0,93,0.00,,---,0.00,VWS V14.00,2013-01-15 05:00:00,
2013-01-14 21:01:00,33.8,32.0,30.57,SSE,151,0.0,0.0,93,0.00,,---,0.00,VWS V14.00,2013-01-15 05:01:00,
2013-01-14 21:03:00,33.8,32.0,30.57,SSE,151,0.0,0.0,93,0.00,,---,0.00,VWS V14.00,2013-01-15 05:03:00,
2013-01-14 21:08:00,33.8,32.3,30.57,SSE,151,0.0,0.0,94,0.00,,---,0.00,VWS V14.00,2013-01-15 05:08:00,
2013-01-14 21:13:00,33.8,32.3,30.57,SSE,151,0.0,0.0,94,0.00,,---,0.00,VWS V14.00,2013-01-15 05:13:00,
2013-01-14 21:18:00,33.8,32.3,30.57,SSE,151,0.0,0.0,94,0.00,,---,0.00,VWS V14.00,2013-01-15 05:18:00,
2013-01-14 21:23:00,33.7,32.2,30.57,SSE,151,0.0,0.0,94,0.00,,---,0.00,VWS V14.00,2013-01-15 05:23:00,
2013-01-14 21:28:00,33.8,32.3,30.57,SSE,151,0.0,0.0,94,0.00,,---,0.00,VWS V14.00,2013-01-15 05:28:00,
2013-01-14 21:33:00,33.8,32.3,30.57,SSE,151,0.0,0.0,94,0.00,,---,0.00,VWS V14.00,2013-01-15 05:33:00,
2013-01-14 21:38:00,33.8,32.3,30.57,SSE,151,0.0,0.0,94,0.00,,---,0.00,VWS V14.00,2013-01-15 05:38:00,
2013-01-14 21:43:00,33.8,32.3,30.57,SSE,151,0.0,0.0,94,0.00,,---,0.00,VWS V14.00,2013-01-15 05:43:00,
2013-01-14 21:48:00,33.8,32.3,30.57,SSE,151,0.0,0.0,94,0.00,,---,0.00,VWS V14.00,2013-01-15 05:48:00,
2013-01-14 21:53:00,33.8,32.3,30.57,SSE,151,0.0,0.0,94,0.00,,---,0.00,VWS V14.00,2013-01-15 05:53:00,
2013-01-14 21:58:00,33.8,32.3,30.57,SSE,151,0.0,0.0,94,0.00,,---,0.00,VWS V14.00,2013-01-15 05:58:00,
2013-01-14 22:03:00,33.8,32.3,30.57,SSE,151,0.0,0.0,94,0.00,,---,0.00,VWS V14.00,2013-01-15 06:03:00,
2013-01-14 22:08:00,33.8,32.3,30.57,SSE,151,0.0,0.0,94,0.00,,---,0.00,VWS V14.00,2013-01-15 06:08:00,
2013-01-14 22:13:00,33.8,32.3,30.57,SSE,151,0.0,0.0,94,0.00,,---,0.00,VWS V14.00,2013-01-15 06:13:00,
2013-01-14 22:18:00,33.8,32.3,30.57,SSE,151,0.0,0.0,94,0.00,,---,0.00,VWS V14.00,2013-01-15 06:18:00,
2013-01-14 22:23:00,33.7,32.2,30.57,SSE,151,0.0,0.0,94,0.00,,---,0.00,VWS V14.00,2013-01-15 06:23:00,
2013-01-14 22:28:00,33.7,32.2,30.57,SSE,151,0.0,0.0,94,0.00,,---,0.00,VWS V14.00,2013-01-15 06:28:00,
2013-01-14 22:33:00,33.7,32.2,30.57,SSE,151,0.0,0.0,94,0.00,,---,0.00,VWS V14.00,2013-01-15 06:33:00,
2013-01-14 22:38:00,33.7,32.2,30.57,SSE,151,0.0,0.0,94,0.00,,---,0.00,VWS V14.00,2013-01-15 06:38:00,
2013-01-14 22:43:00,33.7,32.2,30.57,SSE,151,0.0,0.0,94,0.00,,---,0.00,VWS V14.00,2013-01-15 06:43:00,
2013-01-14 22:48:00,33.7,32.2,30.57,SSE,151,0.0,0.0,94,0.00,,---,0.00,VWS V14.00,2013-01-15 06:48:00,
2013-01-14 22:53:00,33.7,32.2,30.57,SSE,151,0.0,0.0,94,0.00,,---,0.00,VWS V14.00,2013-01-15 06:53:00,
2013-01-14 22:58:00,33.6,32.1,30.57,SSE,151,0.0,0.0,94,0.00,,---,0.00,VWS V14.00,2013-01-15 06:58:00,
2013-01-14 23:03:00,33.5,32.0,30.57,SSE,151,0.0,0.0,94,0.00,,---,0.00,VWS V14.00,2013-01-15 07:03:00,
2013-01-14 23:08:00,33.5,32.0,30.57,SSE,151,0.0,0.0,94,0.00,,---,0.00,VWS V14.00,2013-01-15 07:08:00,
2013-01-14 23:13:00,33.5,32.0,30.57,SSE,151,0.0,0.0,94,0.00,,---,0.00,VWS V14.00,2013-01-15 07:13:00,
2013-01-14 23:18:00,33.5,32.0,30.57,SSE,151,0.0,0.0,94,0.00,,---,0.00,VWS V14.00,2013-01-15 07:18:00,
2013-01-14 23:23:00,33.3,31.8,30.57,SSE,151,0.0,0.0,94,0.00,,---,0.00,VWS V14.00,2013-01-15 07:23:00,
2013-01-14 23:28:00,33.2,31.7,30.57,SSE,151,0.0,0.0,94,0.00,,---,0.00,VWS V14.00,2013-01-15 07:28:00,
2013-01-14 23:33:00,33.0,31.5,30.57,SSE,151,0.0,0.0,94,0.00,,---,0.00,VWS V14.00,2013-01-15 07:33:00,
2013-01-14 23:38:00,33.0,31.5,30.57,SSE,151,0.0,0.0,94,0.00,,---,0.00,VWS V14.00,2013-01-15 07:38:00,
2013-01-14 23:43:00,33.0,31.5,30.57,SSE,151,0.0,0.0,94,0.00,,---,0.00,VWS V14.00,2013-01-15 07:43:00,
2013-01-14 23:48:00,33.1,31.8,30.57,SSE,151,0.0,0.0,95,0.00,,---,0.00,VWS V14.00,2013-01-15 07:48:00,
2013-01-14 23:53:00,33.2,31.9,30.57,SSE,151,0.0,0.0,95,0.00,,---,0.00,VWS V14.00,2013-01-15 07:53:00,
2013-01-14 23:58:00,33.2,31.9,30.57,SSE,151,0.0,0.0,95,0.00,,---,0.00,VWS V14.00,2013-01-15 07:58:00,